Location: Carrières
(48.9495°N, 2.0407°E)
Time: 03:28:54
(UTC+00:00)

Transit 2A Rocket - Pass Details

Date: 28 April 2024
Orbit: 585 x 908 km, 66.7° (Epoch: 19 May)

Event Time Altitude Azimuth Distance (km) Brightness Sun altitude
Rises 19:28:23 0° 314° (NW) 3,363 10.2 -4.5°
Reaches altitude 10° 19:31:20 10° 299° (WNW) 2,476 9.6 -4.9°
Maximum altitude 19:35:31 21° 252° (WSW) 1,861 7.6 -5.5°
Drops below altitude 10° 19:39:50 10° 205° (SSW) 2,564 7.7 -6.1°
Sets 19:42:58 0° 191° (S) 3,518 8.2 -6.5°
